AO-07 1 07530U 74089B 26265.01669086 -.00000034 00000-0 77152-4 0 9994 2 07530 101.9919 279.2751 0011984 307.5739 110.6698 12.53699643372659 UO-11 1 14781U 84021B 26264.86711254 .00000912 00000-0 97870-4 0 9997 2 14781 97.8184 229.4361 0006528 215.5040 144.5745 14.91004682271538 LO-19 1 20442U 90005G 26265.02002684 .00000053 00000-0 35557-4 0 9996 2 20442 98.8818 289.4783 0010486 283.3296 76.6719 14.34145078916277 AO-27 1 22825U 93061C 26265.19328644 .00000032 00000-0 29276-4 0 9991 2 22825 98.6787 332.5254 0008601 168.4715 191.6666 14.30962427720874 FO-29 1 24278U 96046B 26265.08970427 .00000002 00000-0 38145-4 0 9993 2 24278 98.5161 100.6753 0349434 204.8123 153.5859 13.53278486486274 GO-32 1 25397U 98043D 26265.28012941 .00000036 00000-0 35764-4 0 9996 2 25397 99.0161 260.5281 0000647 353.3189 6.7980 14.24443746465157 ISS 1 25544U 98067A 26265.14225571 .00007091 00000-0 13570-3 0 9994 2 25544 51.6312 180.2431 0004771 167.1129 192.9982 15.49222361586784 NO-44 1 26931U 01043C 26265.24336305 .00000046 00000-0 48013-4 0 9996 2 26931 67.0531 353.2339 0005859 273.1390 86.9042 14.31985529304345 SO-50 1 27607U 02058C 26265.18448791 .00000558 00000-0 83642-4 0 9995 2 27607 64.5525 188.8355 0071556 244.6308 114.7378 14.83222800278840 CO-55 1 27844U 03031E 26264.97758732 .00000165 00000-0 90223-4 0 9992 2 27844 98.6774 272.3367 0008390 264.1656 95.8567 14.24384098205457 RS-22 1 27939U 03042A 26265.32309990 .00000650 00000-0 10808-3 0 9996 2 27939 98.3483 92.4567 0010634 326.7537 136.1936 14.73608484229857 CO-65 1 32785U 08021C 26265.20644035 .00003079 00000-0 19238-3 0 9996 2 32785 97.8387 248.7567 0010337 63.9755 296.2537 15.10214588999834 CO-66 1 32791U 08021J 26264.98533645 .00013354 00000-0 38603-3 0 9995 2 32791 97.7572 267.7622 0002119 27.0612 333.0740 15.35769644 2129 RS-30 1 32953U 08025A 26265.31599765 -.00000022 00000-0 -23126-3 0 9996 2 32953 82.5014 295.0304 0020719 99.6142 260.7280 12.43182776831768 SRMSAT 1 37841U 11058D 26265.14961861 .00000351 00000-0 46391-4 0 9991 2 37841 19.9708 192.5647 0011814 190.1101 301.8361 14.11593751771533 ZACUBE-1 1 39417U 13066B 26264.83861786 .00003195 00000-0 24580-3 0 9997 2 39417 97.8159 227.6873 0038775 289.3358 70.3676 15.01857007695236 Delfi-N3xt 1 39428U 13066N 26265.25500117 .00004047 00000-0 34707-3 0 9993 2 39428 97.8288 185.5232 0071174 242.9065 116.4883 14.96144733689134 GOMX-1 1 39430U 13066Q 26265.27891696 .00001224 00000-0 18812-3 0 9996 2 39430 97.6436 99.6225 0129055 124.9826 236.3578 14.69714670684178 LO-74 1 39440U 13066AA 26265.10721599 .00002047 00000-0 18991-3 0 9995 2 39440 97.8992 214.5761 0058432 66.4234 294.3108 14.94303369691464 AO-73 1 39444U 13066AE 26264.86688673 .00004692 00000-0 28404-3 0 9994 2 39444 97.8392 238.4748 0033782 232.7345 127.0802 15.10659972694250 DTUSAT-2 1 40030U 14033W 26265.15945950 .00004599 00000-0 24272-3 0 9994 2 40030 98.0925 269.1575 0006058 262.7113 97.3429 15.16087409667372 LILACSAT-2 1 40908U 15049K 26265.30975569 .00013300 00000-0 20353-3 0 9998 2 40908 97.4556 306.0062 0004682 248.1293 111.9463 15.54492371610828 Lapan A3 1 41603U 16040E 26265.29480106 .00002264 00000-0 71834-4 0 9997 2 41603 97.1573 258.3291 0011135 36.1337 324.0657 15.33633239569692 CAS-2T 1 41847U 16066G 26265.19636770 .00000897 00000-0 13460-3 0 9994 2 41847 98.3747 339.8122 0340940 194.9664 164.1241 14.44853993518802 TechnoSat 1 42829U 17042E 26265.24081430 .00002621 00000-0 18607-3 0 9998 2 42829 97.4410 59.3147 0018661 120.5040 239.8032 15.05437239501300 AO-91 1 43017U 17073E 26265.07518913 .00005699 00000-0 24297-3 0 9994 2 43017 97.4547 130.3111 0146915 354.3929 5.5651 15.14001244480044 S-Net D 1 43186U 18014G 26265.15700159 .00003412 00000-0 17383-3 0 9990 2 43186 97.5249 169.3347 0009427 50.2137 309.9925 15.17427811473461 S-Net B 1 43187U 18014H 26265.17043165 .00003198 00000-0 16326-3 0 9997 2 43187 97.5254 169.3372 0009957 45.8873 314.3178 15.17396189473464 S-Net A 1 43188U 18014J 26264.95751827 .00003438 00000-0 17510-3 0 9997 2 43188 97.5265 169.3535 0009850 47.2247 312.9814 15.17435289473434 S-Net C 1 43189U 18014K 26265.04301060 .00003111 00000-0 15896-3 0 9992 2 43189 97.5283 169.5278 0011018 39.4088 320.7945 15.17385656471999 Ten-Koh 1 43677U 18084G 26265.24917362 .00000984 00000-0 77504-4 0 9991 2 43677 98.0711 101.7191 0009899 147.1021 213.0821 15.03257284430748 PO-101 1 43678U 18084H 26265.25657387 .00000858 00000-0 72777-4 0 9998 2 43678 98.1172 105.7382 0012117 203.3619 156.7055 15.00742795430770 QO-100 1 43700U 18090A 26265.20698468 .00000000 00000-0 00000-0 0 9996 2 43700 0.0259 165.7829 0001184 12.1428 283.4352 1.00270269 28657 MinXSS-2 1 43758U 18099A 26265.23462226 .00036009 00000-0 56034-3 0 9991 2 43758 97.4445 344.8030 0005579 259.0722 100.9903 15.53813683429164 AO-95 1 43770U 18099N 26265.15180393 .00007149 00000-0 25997-3 0 9995 2 43770 97.4286 325.1127 0008284 15.9918 344.1581 15.28531602428020 SNUSat 2 1 43782U 18099AA 26265.07798619 .00004949 00000-0 21260-3 0 9999 2 43782 97.3964 317.0067 0008719 322.8179 37.2453 15.23111390427772 SnugLite 1 43784U 18099AC 26265.12235752 .00006960 00000-0 25004-3 0 9996 2 43784 97.3772 318.5207 0001464 337.4468 22.6707 15.28969325428120 ITASat 1 1 43786U 18099AE 26265.08339978 .00004278 00000-0 20091-3 0 9999 2 43786 97.3934 314.6780 0012557 21.5122 338.6638 15.20084861427620 EAGLET 1 1 43790U 18099AJ 26265.12370218 .00002160 00000-0 12394-3 0 9996 2 43790 97.4138 312.2120 0011339 19.0689 341.0965 15.13545533426991 ESEO 1 43792U 18099AL 26265.09249436 .00000852 00000-0 64974-4 0 9999 2 43792 97.3907 298.3071 0012114 11.6447 348.5057 15.04484546426379 JO-97 1 43803U 18099AX 26265.08987871 .00011700 00000-0 33070-3 0 9999 2 43803 97.4038 328.4073 0003829 283.8344 76.2474 15.36488973428493 Suomi 100 1 43804U 18099AY 26265.10058019 .00008341 00000-0 28590-3 0 9994 2 43804 97.4088 325.2185 0007968 300.2172 59.8279 15.30415373428239 ISAT 1 43879U 18111D 26264.79202454 .00774757 30158-3 11826-2 0 9993 2 43879 97.5695 209.3864 0010269 144.5257 215.6708 16.04382360426400 UWE-4 1 43880U 18111E 26264.78778592 .00033261 00000-0 54911-3 0 9996 2 43880 97.5816 198.0535 0005450 3.3232 356.8056 15.52185618425735 Prox-1 1 44339U 19036A 26264.98861442 .00010005 00000-0 91987-3 0 9997 2 44339 23.9934 186.5711 0005528 81.8951 278.2176 14.92630077387949 Taurus 1 1 44530U 19059C 26265.27546376 .00002133 00000-0 34130-3 0 9994 2 44530 98.6498 76.2524 0008592 13.0735 347.0692 14.72934259372932 TO-108 1 44881U 19093C 26265.23994801 .00000817 00000-0 97938-4 0 9990 2 44881 97.7448 335.0663 0014745 123.7086 236.5538 14.86642688365830 RS-44 1 44909U 19096E 26265.10390914 .00000037 00000-0 10980-3 0 9990 2 44909 82.5166 275.3036 0216331 277.8297 79.8297 12.79749446314744 SALSAT 1 46495U 20068K 26265.17429973 .00005079 00000-0 17231-3 0 9995 2 46495 97.8890 274.2558 0008360 331.7176 28.3609 15.30999331330196 CSS (TIANHE-1) 1 48274U 21035A 26265.20259022 .00014071 00000-0 17173-3 0 9994 2 48274 41.4679 92.9305 0002423 298.0346 62.0248 15.60181132308314 TeikyoSat 4 1 49396U 21102B 26265.02531282 .00001268 00000-0 82214-4 0 9999 2 49396 97.3625 290.7362 0010926 326.5998 33.4541 15.09788714267335 Z-Sat 1 49399U 21102E 26265.32353810 .00002247 00000-0 11069-3 0 9991 2 49399 97.3261 297.7029 0014528 267.9692 91.9879 15.18887664268183 KOSEN 1 1 49402U 21102H 26265.09742475 .00004557 00000-0 16917-3 0 9992 2 49402 97.3103 305.4059 0012204 218.0846 141.9532 15.28004227268819 HO-113 1 50466U 21131B 26265.30829441 .00000265 00000-0 95440-4 0 9990 2 50466 98.4968 357.1678 0004570 152.5304 207.6127 14.41429633249108 SNUGLITE 2 1 52899U 22065F 26265.12356418 .00000603 00000-0 12288-3 0 9992 2 52899 98.2344 49.8704 0008666 81.7625 278.4560 14.64494470225185 UmKA 1 (RS40S) 1 57172U 23091G 26265.24384228 .00004118 00000-0 18449-3 0 9994 2 57172 97.4952 323.5763 0013614 135.8804 224.3521 15.21734965178764 CubeBel-2 (EU11S) 1 57175U 23091K 26265.22478589 .00008738 00000-0 29187-3 0 9992 2 57175 97.4954 329.4030 0010581 127.0148 233.2063 15.31220033179145 RS-38S 1 57189U 23091Z 26265.25465444 .00012700 00000-0 33259-3 0 9995 2 57189 97.5003 336.8354 0007962 86.7474 273.4682 15.38815848179604 SONATE-2 1 59112U 24043Q 26264.71764124 .00046097 00000-0 44186-3 0 9995 2 59112 97.5620 61.6647 0005399 201.6279 158.4753 15.66512927142961 GRBBeta 1 60237U 24128C 26265.09873472 .00002065 00000-0 14982-3 0 9996 2 60237 61.9883 236.0952 0026389 155.9841 204.2490 15.07206572120877 Curium One 1 60242U 24128H 26265.11479327 .00004623 00000-0 26605-3 0 9993 2 60242 61.9772 222.1443 0025630 149.9824 210.2748 15.13694312121125 ROBUSTA-3A 1 60243U 24128J 26265.06997225 .00003930 00000-0 23374-3 0 9990 2 60243 61.9849 225.3272 0027578 147.2247 213.0567 15.12772994121075 CatSat 1 60246U 24125J 26265.12483549 .00102417 00000-0 73819-3 0 9995 2 60246 97.1937 119.7766 0015310 170.9306 189.2238 15.73091574122559 AO-123 1 61781U 24199AY 26265.21345213 .00005360 00000-0 15037-3 0 9993 2 61781 97.2837 133.0144 0012282 327.1483 32.8997 15.36929253148826 LASARsat 1 62391U 24247Q 26264.88106215 .00033279 00000-0 53318-3 0 9998 2 62391 44.9720 76.3897 0009919 243.9896 115.9975 15.52514070 98316 CroCube 1 62394U 24247T 26263.89520826 .00038917 00000-0 55900-3 0 9992 2 62394 44.9695 77.3471 0010500 248.1402 111.8375 15.55439305 98215 JINJUSat 1B 1 63210U 25052A 26264.69606325 .00011866 00000-0 33776-3 0 9994 2 63210 97.3861 161.7026 0005267 94.7775 265.4070 15.36257753 84909 NUSHSAT 1 1 63211U 25052B 26264.69099963 .00016074 00000-0 41101-3 0 9996 2 63211 97.3834 162.6486 0005026 97.1591 263.0226 15.39509166 84971 TEVEL2-4 1 63213U 25052D 26264.65098456 .00014347 00000-0 38880-3 0 9991 2 63213 97.3755 161.3481 0004581 106.6572 253.5176 15.37745731 84927 TEVEL2-5 1 63214U 25052E 26264.94431626 .00013937 00000-0 38051-3 0 9998 2 63214 97.3754 161.5598 0004467 106.8935 253.2800 15.37523825 84969 TEVEL2-6 1 63215U 25052F 26264.95877909 .00013786 00000-0 37678-3 0 9994 2 63215 97.3758 161.5594 0004360 107.4871 252.6851 15.37494057 84961 TEVEL2-1 1 63217U 25052H 26265.15529565 .00012909 00000-0 36043-3 0 9992 2 63217 97.3730 161.2566 0004402 116.1059 244.0639 15.36844659 84977 TEVEL2-3 1 63218U 25052J 26264.95037275 .00013062 00000-0 36382-3 0 9999 2 63218 97.3735 161.0882 0004133 115.2494 244.9179 15.36917753 84947 TEVEL2-2 1 63219U 25052K 26264.69907106 .00013054 00000-0 36441-3 0 9997 2 63219 97.3731 160.8036 0004388 117.4159 242.7532 15.36848461 84900 TEVEL2-9 1 63237U 25052AD 26265.13489204 .00011495 00000-0 34474-3 0 9992 2 63237 97.3791 160.3871 0007007 139.4153 220.7613 15.34613190 84887 TEVEL2-7 1 63238U 25052AE 26264.67495359 .00011525 00000-0 34979-3 0 9993 2 63238 97.3795 159.7972 0006872 142.3858 217.7867 15.34233553 84800 TEVEL2-8 1 63239U 25052AF 26264.94488798 .00011402 00000-0 34613-3 0 9992 2 63239 97.3793 160.0419 0007019 139.9279 220.2483 15.34229165 84844 SPIRONE 1 66657U 25274H 26265.25448505 .00001009 00000-0 10018-3 0 9997 2 66657 97.7486 193.1771 0013354 55.2116 305.0358 14.93863159 44717 K-HERO 1 66660U 25274L 26265.03200058 .00001395 00000-0 13506-3 0 9999 2 66660 97.7495 193.1888 0015330 59.2774 300.9954 14.94258274 44690 SNUGLITE-III DURI 1 66661U 25274M 26265.01838765 .00001508 00000-0 14556-3 0 9992 2 66661 97.7491 193.1955 0015951 60.3978 299.8829 14.94263523 44690 SAKHACUBE-CHOLBON 1 67290U 25313AU 26264.96640407 .00006540 00000-0 25367-3 0 9995 2 67290 97.3861 338.8533 0009259 24.2139 335.9533 15.26416887 40732 RS95S (QMR-KWT-2) 1 67291U 25313AV 26265.17024551 .00009404 00000-0 34089-3 0 9999 2 67291 97.3853 339.4843 0008463 20.6995 339.4586 15.28542390 40795 Ten-Koh2 1 68261U 25241B 26265.17067762 .00004214 00000-0 18023-3 0 9992 2 68261 51.6561 217.6657 0008185 108.3549 251.8320 15.24934726 29707 JACK-002 1 68417U 26067B 26264.87271418 .00004414 00000-0 20558-3 0 9991 2 68417 97.4674 222.3949 0001073 14.7802 345.3464 15.20425460 26634 DISCO 2 1 68431U 26067R 26264.84050732 .00005897 00000-0 27417-3 0 9995 2 68431 97.4706 222.3653 0003402 52.4931 307.6613 15.20344712 26624 HADES-SA (SpinnyONE) 1 68446U 26067AG 26264.82533829 .00014344 00000-0 62927-3 0 9994 2 68446 97.4501 221.9315 0008958 96.4832 263.7424 15.22034902 26612 PARUS-6U1 1 68456U 26067AS 26264.82650253 .00004226 00000-0 20876-3 0 9991 2 68456 97.4660 221.8187 0007461 88.4894 271.7194 15.18384042 26590 SAL-E 1 68458U 26067AU 26264.86153359 .00005061 00000-0 24523-3 0 9993 2 68458 97.4580 221.7526 0007820 95.2045 265.0082 15.18958224 26605 FSI-SAT 2 1 68792U 26088A 26264.35424109 .00003344 00000-0 22401-3 0 9990 2 68792 97.5201 51.3233 0015191 135.2327 225.0130 15.07480619 22777 OrigamiSat 2 1 68795U 26088D 26264.86426229 .00008411 00000-0 51053-3 0 9999 2 68795 97.5186 52.3243 0015728 106.2222 254.0739 15.10662003 22884 ARICA 2 1 68796U 26088E 26264.65908216 .00002358 00000-0 15238-3 0 9997 2 68796 97.5192 51.9716 0016902 106.6513 253.6573 15.09080610 22847 WASEDA-SAT-ZERO-II 1 68797U 26088F 26262.64357720 .00004134 00000-0 26074-3 0 9997 2 68797 97.5183 50.0502 0016405 112.7189 247.5777 15.09553759 22540 MANGARO-II-Piscus 1 68798U 26088G 26264.88995664 .00003027 00000-0 19264-3 0 9994 2 68798 97.5202 52.2923 0020171 108.5681 251.7742 15.09367886 22889 CO-128 1 69912U 26156AV 26264.78728174 .00000857 00000-0 92329-4 0 9990 2 69912 97.7470 163.8706 0001040 225.3221 134.7913 14.90957317 11394 MARINA 1 69920U 26156BD 26264.65956299 .00001406 00000-0 14350-3 0 9994 2 69920 97.7438 163.8554 0005854 260.8291 99.2265 14.92182626 11385 IO-86 1 40931U 26199.45381863 .00000000 00000-0 77536-4 0 07 2 40931 6.0006 322.6653 0012733 338.8432 273.6875 14.79294310 03 LILIUM-4 1 71922C 26067AC 26089.50133053 -.00014632 00000 0 -74472-3 0 04 2 71922 97.4497 49.1617 0004341 5.9603 355.7042 15.16896692 16